Location: Saint Peter Port
(49.4500°N, 2.5330°W)
Time: 10:59:37
(UTC+00:00)

ISS - Pass Details

Date: 27 October 2019
Orbit: 412 x 421 km, 51.6° (Epoch: 18 November)

Event Time Altitude Azimuth Distance (km) Brightness Sun altitude
Exits shadow 05:28:34 10° 215° (SW) 1,528 -1.2 -13.7°
Reaches altitude 10° 05:28:38 10° 215° (SW) 1,504 -1.3 -13.7°
Maximum altitude 05:31:45 35° 148° (SSE) 696 -2.3 -13.2°
Drops below altitude 10° 05:34:53 10° 80° (E) 1,508 0.4 -12.7°
Sets 05:37:10 0° 72° (ENE) 2,408 1.4 -12.3°
